Marrakech, Morocco

4:45 AM WET on January 18, 2017 (GMT +0000)
Marrakech

Weather History for 60230 - August, 2014

Change the Weather History Date:

Monday, August 18, 2014

  Actual Average Record
Temperature  
Mean Temperature 80 °F -  
Max Temperature 93 °F 90 °F - ()
Min Temperature 66 °F 65 °F - ()
Cooling Degree Days 14    
Growing Degree Days 30 (Base 50)    
Moisture  
Dew Point 64 °F    
Average Humidity 63    
Maximum Humidity 94    
Minimum Humidity 24    
Precipitation  
Precipitation 0.00 in 0.01 in - ()
Sea Level Pressure  
Sea Level Pressure 29.92 in    
Wind  
Wind Speed 6 mph ()    
Max Wind Speed 10 mph    
Max Gust Speed 18 mph    
Visibility 6.1 miles    
Events      
T = Trace of Precipitation, MM = Missing Value Source: Averaged Metar Reports

Daily Weather History Graph

Daily Weather History Graph

Search for Another Location

Airport or City:

Trip Planner

Search our weather history database for the weather conditions in past years. The results will help you decide how hot, cold, wet, or windy it might be!

Date:

Astronomy

Aug. 18, 2014 Rise Set
Actual Time 6:59 AM WEST 8:12 PM WEST
Civil Twilight 6:33 AM WEST 8:37 PM WEST
Nautical Twilight 6:03 AM WEST 9:08 PM WEST
Astronomical Twilight 5:31 AM WEST 9:39 PM WEST
Moon 1:00 AM WEST 2:57 PM WEST
Length of Visible Light 14h 04m
Length of Day
13h 13m
Last Quarter, 40% of the Moon is Illuminated
Aug 18
Last Quarter
Aug 25
New
Sep 2
First Quarter
Sep 9
Full
Sep 16
Last Quarter

Hourly Weather History & Observations

Time (WEST) Temp. Heat Index Dew Point Humidity Pressure Visibility Wind Dir Wind Speed Gust Speed Precip Events Conditions
12:30 AM 73.4 °F - 64.4 °F 73% 29.95 in 6.2 mi WSW 5.8 mph - N/A   Partly Cloudy
1:00 AM 74 °F - 64 °F 63% 29.87 in 6 mi SW 5.8 mph - -  
1:00 AM 73.4 °F - 64.4 °F 73% 29.92 in 6.2 mi SW 5.8 mph - N/A   Unknown
1:30 AM 73.4 °F - 64.4 °F 73% 29.92 in 6.2 mi West 3.5 mph - N/A   Partly Cloudy
2:00 AM 71.6 °F - 64.4 °F 78% 29.92 in 6.2 mi West 4.6 mph - N/A   Partly Cloudy
2:30 AM 71.6 °F - 64.4 °F 78% 29.92 in 6.2 mi West 4.6 mph - N/A   Partly Cloudy
3:00 AM 71.6 °F - 64.4 °F 78% 29.92 in 6.2 mi WSW 4.6 mph - N/A   Partly Cloudy
3:30 AM 71.6 °F - 64.4 °F 78% 29.89 in 6.2 mi WSW 3.5 mph - N/A   Partly Cloudy
4:00 AM 70 °F - 64 °F 75% 29.85 in 6 mi WSW 3.5 mph - -   Scattered Clouds
4:00 AM 69.8 °F - 64.4 °F 83% 29.89 in 6.2 mi WSW 3.5 mph - N/A   Partly Cloudy
4:30 AM 69.8 °F - 62.6 °F 78% 29.89 in 6.2 mi WSW 3.5 mph - N/A   Partly Cloudy
5:00 AM 68.0 °F - 64.4 °F 88% 29.89 in 6.2 mi West 3.5 mph - N/A   Partly Cloudy
6:00 AM 68.0 °F - 64.4 °F 88% 29.89 in 6.2 mi West 6.9 mph - N/A   Partly Cloudy
6:30 AM 68.0 °F - 64.4 °F 88% 29.89 in 6.2 mi West 4.6 mph - N/A   Partly Cloudy
6:46 AM 66 °F - 64 °F 91% 29.86 in 6 mi West 5.8 mph - -   Scattered Clouds
7:00 AM 66.2 °F - 64.4 °F 94% 29.92 in 6.2 mi WSW 5.8 mph - N/A   Partly Cloudy
7:30 AM 66.2 °F - 64.4 °F 94% 29.92 in 5.0 mi WSW 4.6 mph - N/A   Partly Cloudy
8:00 AM 66.2 °F - 64.4 °F 94% 29.92 in 6.2 mi SW 5.8 mph - N/A   Partly Cloudy
8:30 AM 66.2 °F - 64.4 °F 94% 29.92 in 6.2 mi West 5.8 mph - N/A   Partly Cloudy
9:00 AM 68.0 °F - 66.2 °F 94% 29.95 in 6.2 mi West 5.8 mph - N/A   Partly Cloudy
9:30 AM 68.0 °F - 66.2 °F 94% 29.95 in 6.2 mi West 8.1 mph - N/A   Partly Cloudy
10:00 AM 69 °F - 66 °F 89% 29.91 in 6 mi West 9.2 mph - -   Scattered Clouds
10:00 AM 68.0 °F - 66.2 °F 94% 29.95 in 6.2 mi West 8.1 mph - N/A   Partly Cloudy
10:30 AM 69.8 °F - 66.2 °F 88% 29.95 in 6.2 mi West 9.2 mph - N/A   Scattered Clouds
11:00 AM 73.4 °F - 66.2 °F 78% 29.95 in 6.2 mi West 6.9 mph - N/A   Scattered Clouds
11:30 AM 77.0 °F - 66.2 °F 69% 29.95 in 6.2 mi West 6.9 mph - N/A   Scattered Clouds
12:00 PM 78.8 °F - 66.2 °F 65% 29.95 in 6.2 mi West 8.1 mph - N/A   Partly Cloudy
12:30 PM 80.6 °F 82.7 °F 66.2 °F 61% 29.95 in 6.2 mi WNW 5.8 mph - N/A   Partly Cloudy
1:00 PM 84 °F - 65 °F 44% 29.85 in 6 mi NW 5.8 mph - -   Clear
1:00 PM 84.2 °F 86.6 °F 66.2 °F 55% 29.95 in 6.2 mi WNW 5.8 mph - N/A   Partly Cloudy
1:30 PM 86.0 °F 87.3 °F 64.4 °F 48% 29.95 in 6.2 mi Variable 6.9 mph - N/A   Partly Cloudy
2:00 PM 86.0 °F 87.3 °F 64.4 °F 48% 29.95 in 6.2 mi WNW 8.1 mph - N/A   Partly Cloudy
2:30 PM 87.8 °F 88.5 °F 62.6 °F 43% 29.95 in 6.2 mi West 6.9 mph 18.4 mph N/A   Unknown
3:00 PM 91.4 °F 93.2 °F 64.4 °F 41% 29.95 in 6.2 mi WNW 8.1 mph - N/A   Scattered Clouds
3:30 PM 91.4 °F 92.1 °F 62.6 °F 38% 29.92 in 6.2 mi West 9.2 mph - N/A   Scattered Clouds
4:00 PM 91 °F - 63 °F 30% 29.81 in 6 mi WSW 9.2 mph - -   Partly Cloudy
4:00 PM 91.4 °F 92.1 °F 62.6 °F 38% 29.92 in 6.2 mi WSW 9.2 mph - N/A   Scattered Clouds
4:30 PM 93.2 °F 94.1 °F 62.6 °F 36% 29.92 in 6.2 mi West 8.1 mph - N/A   Scattered Clouds
5:00 PM 93.2 °F 94.1 °F 62.6 °F 36% 29.92 in 6.2 mi WSW 8.1 mph - N/A   Scattered Clouds
5:30 PM 93.2 °F 94.1 °F 62.6 °F 36% 29.92 in 6.2 mi West 10.4 mph - N/A   Unknown
6:30 PM 93.2 °F 94.1 °F 62.6 °F 36% 29.92 in 6.2 mi West 10.4 mph - N/A   Scattered Clouds
7:00 PM 92 °F - 59 °F 24% 29.81 in 6 mi West 10.4 mph - -   Partly Cloudy
7:00 PM 91.4 °F 90.7 °F 59.0 °F 34% 29.92 in 6.2 mi West 9.2 mph - N/A   Scattered Clouds
7:30 PM 93.2 °F 92.6 °F 59.0 °F 32% 29.92 in 6.2 mi West 8.1 mph - N/A   Scattered Clouds
8:00 PM 91.4 °F 90.7 °F 59.0 °F 34% 29.92 in 6.2 mi West 9.2 mph - N/A   Scattered Clouds
8:30 PM 87.8 °F 88.5 °F 62.6 °F 43% 29.95 in 6.2 mi West 6.9 mph - N/A   Scattered Clouds
9:00 PM 87.8 °F 88.5 °F 62.6 °F 43% 29.95 in 6.2 mi North 9.2 mph - N/A   Scattered Clouds
9:30 PM 86.0 °F 86.6 °F 62.6 °F 45% 29.95 in 6.2 mi North 6.9 mph - N/A   Scattered Clouds
10:00 PM 84 °F - 64 °F 41% 29.87 in 6 mi NNW 5.8 mph - -   Partly Cloudy
10:00 PM 84.2 °F 85.6 °F 64.4 °F 51% 29.98 in 6.2 mi NNW 5.8 mph - N/A   Scattered Clouds
10:30 PM 82.4 °F 83.9 °F 64.4 °F 54% 29.98 in 6.2 mi NNW 4.6 mph - N/A   Scattered Clouds
11:00 PM 82.4 °F 83.9 °F 64.4 °F 54% 29.98 in - ENE 5.8 mph - N/A   Clear
11:30 PM 80.6 °F 82.3 °F 64.4 °F 58% 29.98 in - NE 4.6 mph - N/A   Clear